Location: Pella
(41.4080°N, 92.9160°W)
Time: 05:17:28
(UTC-05:00)

Daily predictions for brighter satellites

Satellite Brightness Start Highest point End
(mag) Time Altitude Azimuth Time Altitude Azimuth Time Altitude Azimuth
SL-8 R/B 4.5 00:02:10 10° WNW 00:06:52 49° NNE 00:08:29 35° ENE
Cosmos 1741 Rocket 3.8 00:08:11 78° SSW 00:08:32 89° SE 00:13:54 10° NNE
SL-23 DEB 4.4 00:03:56 10° WSW 00:09:10 54° N 00:12:09 10° NE
H-2A R/B 3.5 00:09:27 23° WSW 00:10:22 24° W 00:14:25 10° NW
Meteor 2-5 Rocket 3.7 00:11:10 66° SE 00:11:45 72° E 00:17:32 10° NNE
Terra 3.7 00:18:26 19° WSW 00:19:02 20° W 00:22:31 10° NW
Cosmos 1842 Rocket 4.3 00:14:53 10° NNW 00:18:45 46° WNW 00:18:45 46° WNW
Cosmos 1092 Rocket 4.1 00:17:40 53° SW 00:19:11 72° W 00:25:29 10° N
Cosmos 1733 4.2 00:17:42 10° N 00:20:29 45° N 00:20:29 45° N
Cosmos 1656 Rocket 3.5 00:15:54 10° NNW 00:21:38 89° W 00:22:04 78° SSE
Cosmos 1570 Rocket 4.3 00:18:38 10° NNW 00:23:52 55° WSW 00:24:00 55° WSW
Cosmos 1850 Rocket 4.3 00:26:27 54° WSW 00:27:10 60° WNW 00:32:21 10° NNE
Meteor 2-1 Rocket 4.4 00:22:59 10° N 00:28:51 61° ENE 00:29:28 58° ESE
CZ-2C R/B 4.1 00:30:26 10° NE 00:34:45 25° E 00:34:45 25° E
NOSS 3-2 (C) 3.8 00:35:49 47° ESE 00:35:49 47° ESE 00:41:47 10° NE
S3M 4.2 00:30:36 10° N 00:36:46 57° E 00:37:39 53° ESE
Cosmos 1470 4.1 00:35:17 10° NNW 00:37:54 34° NW 00:37:54 34° NW
CZ-4C R/B 2.5 00:40:01 50° E 00:40:01 50° E 00:45:02 10° NE
Cosmos 1655 Rocket 3.9 00:38:30 69° S 00:39:22 88° E 00:45:41 10° N
Atlas Centaur 2 4.3 00:37:26 10° WSW 00:40:54 24° SW 00:40:54 24° SW
Helios 1A Rocket 4.1 00:41:33 10° NNE 00:44:16 38° NE 00:44:16 38° NE
COSMOS 2487 4.3 00:50:23 30° NNW 00:50:23 30° NNW 00:52:39 10° N
Cosmos 468 Rocket 4.1 00:46:05 10° NNW 00:51:21 67° ENE 00:51:25 67° ENE
Cosmos 1428 Rocket 4.3 00:51:42 68° SE 00:52:16 73° E 00:58:27 10° NNE
Cosmos 1766 Rocket 4.0 00:54:16 59° NNE 00:54:16 59° NNE 00:57:57 10° N
Meteor 1-16 Rocket 4.2 00:50:46 10° NNW 00:56:20 68° W 00:56:34 67° WSW
Cosmos 1814 Rocket 4.1 00:51:20 10° NNW 00:56:36 66° ENE 00:56:45 65° E
Cosmos 405 Rocket 4.2 01:00:15 35° NNE 01:00:15 35° NNE 01:02:36 10° NNE
Cosmos 1328 Rocket 4.3 01:01:03 10° N 01:04:37 47° NE 01:04:37 47° NE
H-2A R/B 3.7 01:03:35 10° N 01:06:20 34° NW 01:06:20 34° NW
Cosmos 2278 3.7 01:02:30 10° NNW 01:08:09 70° ENE 01:08:41 65° E
Cosmos 1486 Rocket 4.0 01:09:38 69° ENE 01:09:38 69° ENE 01:14:28 10° NNE
Cosmos 2221 3.8 01:05:26 10° NNW 01:08:31 34° WNW 01:08:31 34° WNW
Cosmos 1076 Rocket 4.3 01:11:16 46° NW 01:11:16 46° NW 01:14:37 10° N
Cosmos 1818 3.7 01:05:26 10° NNW 01:10:54 66° NE 01:11:26 62° E
Cosmos 2026 Rocket 4.4 01:10:43 45° WSW 01:11:43 50° WNW 01:17:36 10° N
Cosmos 2228 Rocket 3.6 01:09:50 10° N 01:13:23 57° N 01:13:23 57° N
Cosmos 1515 Rocket 4.3 01:12:02 10° N 01:15:49 50° NE 01:15:49 50° NE
NOSS 3-2 (A) 3.6 01:19:14 55° WSW 01:20:36 72° NW 01:27:17 10° NNE
ISS 0.0 01:18:48 10° NW 01:20:36 14° N 01:22:26 10° NNE
CZ-4B R/B 3.9 01:24:39 19° NW 01:24:39 19° NW 01:26:08 10° NW
Cosmos 2082 Rocket 2.5 01:28:49 53° ESE 01:28:49 53° ESE 01:34:14 10° NNE
Cosmos 1697 Rocket 3.8 01:26:22 10° N 01:31:39 38° ENE 01:33:56 27° ESE
Cosmos 1763 Rocket 3.5 01:29:02 10° NNW 01:34:22 76° ENE 01:34:31 75° E
Cosmos 1833 Rocket 3.0 01:40:04 50° ESE 01:40:07 50° ESE 01:45:33 10° NE
PSLV R/B 4.5 01:45:45 58° NNE 01:45:45 58° NNE 01:49:13 10° N
Cosmos 1867 3.4 01:45:00 83° WSW 01:45:10 86° WNW 01:50:42 10° NNE
Cosmos 883 Rocket 4.4 01:39:21 10° N 01:45:45 83° W 01:46:39 67° S
Aureole 1 Rocket 4.5 01:43:42 10° N 01:48:00 40° ENE 01:49:39 32° ESE
Nadezhda 2 Rocket 4.5 01:48:08 63° SSE 01:49:11 77° E 01:55:30 10° N
USA 215 3.9 01:44:25 10° ENE 01:50:25 37° SE 01:50:36 37° SE
Cosmos 1354 Rocket 3.9 01:54:49 82° WSW 01:54:59 84° WNW 02:00:20 10° NNE
Cosmos 1674 3.8 01:57:00 42° NNE 01:57:00 42° NNE 01:59:35 10° N
CZ-2C R/B 3.0 01:55:22 75° SSE 01:55:51 90° E 02:01:35 10° NNW
Cosmos 1726 4.3 01:56:49 10° NNE 01:59:30 19° ENE 01:59:41 19° ENE
USA 32 4.2 01:54:25 10° N 01:59:39 63° E 02:00:13 58° ESE
Cosmos 1503 Rocket 3.9 02:01:51 74° WSW 02:02:09 76° WNW 02:07:30 10° NNE
Lacrosse 5 3.0 01:58:39 10° NW 02:03:27 41° NE 02:08:14 10° ESE
Cosmos 1656 3.5 02:02:13 10° NNW 02:07:57 87° WSW 02:08:39 70° SSE
Cosmos 2315 Rocket 3.9 02:05:50 10° N 02:12:09 73° W 02:13:15 60° SSW
Cosmos 841 Rocket 3.8 02:07:43 10° NNW 02:12:30 53° W 02:12:30 53° W
Cosmos 724 4.2 02:14:16 63° SW 02:15:12 78° WNW 02:21:06 10° NNE
CZ-2C R/B 3.3 02:10:11 10° N 02:15:24 43° WNW 02:16:17 40° W
Meteor 2-2 Rocket 4.5 02:11:42 10° NNW 02:17:13 52° W 02:17:35 51° WSW
Cosmos 1151 Rocket 3.7 02:14:09 10° NNW 02:17:28 44° NW 02:17:28 44° NW
Cosmos 2058 3.1 02:23:26 67° ENE 02:23:26 67° ENE 02:27:17 10° NNE
Cosmos 2322 Rocket 4.1 02:19:06 10° N 02:23:49 26° NE 02:28:28 10° ESE
Cosmos 2151 3.3 02:25:31 58° NW 02:25:31 58° NW 02:29:19 10° N
Cosmos 1745 Rocket 4.4 02:23:23 41° SSE 02:25:26 58° E 02:31:39 10° NNE
CENTAUR R/B 2.5 02:24:34 55° S 02:25:50 70° ESE 02:32:37 10° NE
Cosmos 783 Rocket 4.5 02:21:54 10° NNW 02:27:13 81° ENE 02:28:16 58° SE
CZ-4C R/B 3.8 02:25:10 18° W 02:28:11 29° NW 02:33:27 10° NNE
CZ-3 Stage 3 4.5 02:04:23 10° WSW 02:32:45 40° S 02:37:58 10° ESE
Nadezhda 1 Rocket 4.4 02:26:57 10° N 02:33:02 57° E 02:35:52 31° SE
Lacrosse 5 rocket 3.8 02:30:14 10° NNW 02:33:49 24° NNE 02:37:31 10° E
Meteor 1-11 4.3 02:36:43 52° SSE 02:38:09 77° E 02:43:59 10° NNE
Sich 1 3.1 02:38:33 66° ESE 02:38:48 68° E 02:43:12 10° NNE
Cosmos 405 4.2 02:36:31 10° NNW 02:38:53 36° NW 02:38:53 36° NW
Cosmos 2344 4.1 02:37:44 29° WSW 02:41:53 57° NW 02:50:46 10° NNE
IRAS Rocket 4.2 02:38:05 10° NNE 02:43:37 79° ESE 02:44:56 53° S
H-2A R/B 3.3 02:45:24 33° SSE 02:45:24 33° SSE 02:57:04 10° E
PSLV R/B 3.6 02:41:45 10° N 02:46:22 74° WNW 02:46:43 69° WSW
ASTEX 1 3.9 02:45:10 10° N 02:49:52 43° WNW 02:50:22 42° W
AQUA 4.3 02:47:45 10° NNE 02:52:24 51° E 02:53:37 41° SE
Cosmos 1980 Rocket 2.1 02:49:07 10° NNW 02:54:45 77° WSW 02:56:36 44° S
ISS -0.4 02:55:36 10° NNW 02:58:01 19° NNE 03:00:26 10° ENE
CBERS-1 4.3 02:53:44 10° NNE 02:58:48 61° E 03:00:26 41° SSE
Cosmos 1300 3.2 02:56:08 10° NNW 02:59:19 47° WNW 02:59:19 47° WNW
ERS-2 2.1 02:56:21 10° NNE 03:00:00 84° NNW 03:00:00 84° NNW
CZ-2D R/B 4.2 02:58:50 10° NE 03:02:29 19° E 03:06:08 10° SE
ADEOS 4.2 03:00:06 10° NNE 03:05:11 50° E 03:07:24 30° SSE
ARIANE 5 R/B 4.0 03:03:11 10° NE 03:07:36 29° E 03:10:38 16° SE
NPP 3.6 03:02:47 10° NNE 03:08:12 89° ESE 03:10:03 43° SSW
Cosmos 2082 Rocket 3.8 03:10:39 18° W 03:13:08 24° NW 03:17:43 10° N
Cosmos 1697 Rocket 3.5 03:10:34 10° NW 03:15:29 31° WSW 03:15:37 31° WSW
Cosmos 332 Rocket 4.0 03:14:03 10° NNW 03:18:41 49° WSW 03:19:18 46° SW
Cosmos 2242 Rocket 3.8 03:16:41 10° NNW 03:20:56 49° W 03:21:25 46° WSW
Meteor 1-4 Rocket 2.7 03:18:36 10° N 03:22:23 74° E 03:23:27 44° SSE
Cosmos 540 Rocket 4.2 03:18:08 10° NW 03:22:45 33° W 03:23:04 33° WSW
SL-08 R/B 3.3 03:21:53 43° SSW 03:23:19 64° W 03:28:12 10° NNW
OAO 3 Rocket 3.8 03:23:53 35° SSE 03:23:53 35° SSE 03:27:54 10° ESE
BREEZE-M DEB (TANK) 3.9 03:20:13 10° WNW 03:23:40 83° NNE 03:36:32 10° ESE
Cosmos 1833 Rocket 4.2 03:21:45 19° W 03:24:19 25° NW 03:28:57 10° N
Cosmos 1455 2.3 03:23:34 10° N 03:27:22 70° E 03:28:44 37° SSE
Meteor 2-10 4.0 03:22:38 10° NNW 03:27:52 80° W 03:30:42 29° S
Cosmos 2181 Rocket 4.2 03:23:08 10° N 03:29:18 71° E 03:34:46 14° SSE
USA 215 3.5 03:27:10 10° NE 03:33:37 65° NW 03:37:56 22° WSW
ATLAS 5 CENTAUR R/B 2.9 03:32:15 23° SSE 03:34:32 35° ESE 03:39:13 10° NE
Cosmos 1633 Rocket 4.1 03:34:04 28° W 03:34:51 30° WNW 03:38:47 10° NNW
Cosmos 1726 3.5 03:31:47 10° NW 03:34:21 24° WNW 03:34:21 24° WNW
Cosmos 2360 4.4 03:31:11 10° NW 03:36:40 50° WSW 03:39:21 28° SSW
IRS-1C 4.2 03:36:19 10° N 03:41:38 68° WNW 03:44:15 30° SSW
Cosmos 1869 3.2 03:40:11 10° N 03:44:10 86° W 03:46:06 29° S
Lacrosse 5 2.3 03:41:43 10° WNW 03:46:21 37° SW 03:48:15 27° S
Cosmos 1703 Rocket 4.2 03:45:31 10° N 03:49:49 55° E 03:54:03 10° SSE
BREEZE-M TANK 2.9 03:45:50 10° W 03:50:43 47° NNW 03:53:10 10° ENE
Cosmos 1470 Rocket 4.2 03:51:40 30° WSW 03:53:08 39° WNW 03:57:19 10° N
Cosmos 1626 2.3 03:53:42 37° SW 03:54:51 53° W 03:58:33 10° N
SL-16 R/B 2.1 03:49:27 10° NNW 03:55:06 66° WSW 04:00:42 10° S
Cosmos 1933 Rocket 4.3 03:56:23 28° WSW 03:57:52 36° WNW 04:01:56 10° N
Resurs 1-4 Rocket 2.5 03:54:02 10° NNE 03:59:19 64° E 04:03:50 14° S
SL-16 R/B 2.6 03:53:37 10° SSE 03:59:52 85° ENE 04:06:11 10° NNW
Cosmos 968 Rocket 4.4 03:59:07 22° WSW 04:01:36 33° WNW 04:06:15 10° N
Cosmos 2292 Rocket 2.8 04:00:53 39° SW 04:01:45 59° W 04:05:09 10° N
Cosmos 2074 Rocket 4.3 03:56:40 11° S 04:02:40 66° E 04:08:52 10° NNE
USA 161 2.8 04:05:58 20° WNW 04:05:58 20° WNW 04:07:10 10° NW
Cosmos 2184 Rocket 4.3 04:00:13 10° S 04:06:31 69° E 04:12:50 10° NNE
Cosmos 2322 Rocket 2.4 04:02:42 10° NW 04:08:05 47° WSW 04:13:25 10° S
Cosmos 1271 Rocket 3.7 04:05:34 10° NNW 04:08:48 27° W 04:09:36 25° WSW
EO 1 Del DPAF 3.3 04:06:21 19° S 04:09:01 62° WSW 04:12:54 10° NNW
Cosmos 1933 3.2 04:05:11 10° N 04:09:14 87° W 04:12:54 12° S
Cosmos 371 Rocket 4.5 04:06:39 10° NW 04:10:29 24° W 04:11:43 21° WSW
SME Rocket 4.4 04:05:04 10° SSE 04:11:50 59° ENE 04:16:26 10° N
Cosmos 1346 3.1 04:11:57 31° SSW 04:13:13 64° W 04:16:17 10° N
Lacrosse 5 rocket 1.4 04:09:04 10° NW 04:13:27 65° SW 04:17:58 10° SSE
FALCON 9 R/B 2.1 04:15:17 16° SSE 04:15:17 16° SSE 04:16:21 10° SE
MOS 1-B 4.4 04:09:07 10° NNE 04:14:56 83° ESE 04:20:18 12° SSW
CENTAUR R/B 4.0 04:11:46 10° W 04:17:10 28° NW 04:23:09 10° NNE
Okean 1-7 3.2 04:17:06 10° N 04:21:30 77° E 04:25:52 10° SSE
Cosmos 923 Rocket 4.3 04:16:30 10° NNW 04:21:31 45° WSW 04:26:27 10° S
Okean O Rocket 2.4 04:20:48 10° NNE 04:25:07 50° E 04:29:23 10° S
H-2A ROCKET BODY 3.2 04:25:48 15° SSW 04:25:48 15° SSW 04:27:23 10° SSE
Cosmos 304 Rocket 3.8 04:22:24 10° NNW 04:27:10 60° WSW 04:31:54 10° S
Cosmos 1680 Rocket 3.7 04:26:16 10° NNW 04:31:16 48° WSW 04:36:15 10° S
ISS -3.2 04:31:36 10° NW 04:34:52 79° NE 04:38:07 10° ESE
USA 229 DEB 4.1 04:29:07 10° SSW 04:35:53 61° ESE 04:42:44 10° NE
USA 229 4.1 04:29:11 10° SSW 04:35:59 61° ESE 04:42:51 10° NE
Meteor 1-26 Rocket 4.1 04:31:25 10° NNW 04:37:00 82° W 04:42:30 10° S
IRS-1C Rocket 4.2 04:32:09 10° NNE 04:37:28 79° ESE 04:42:44 10° S
Cosmos 2360 Rocket 2.1 04:33:54 10° NNW 04:39:32 74° WSW 04:45:08 10° SSE
SL-08 ROCKET BODY 4.4 04:34:06 10° S 04:40:06 79° W 04:46:16 10° N
CZ-2D R/B 2.4 04:37:46 10° N 04:42:52 54° WNW 04:47:58 10° SSW
Thor Agena Rocket 3.8 04:38:51 10° SSE 04:44:08 79° ENE 04:49:27 10° NNW
In-Cosmos 22 Rocket 4.2 04:39:05 10° S 04:44:23 84° E 04:49:48 10° N
CZ-4B R/B 3.6 04:40:21 10° NNE 04:45:46 66° ESE 04:51:16 10° S
Cosmos 2221 Rocket 4.3 04:41:47 10° NNW 04:45:53 36° W 04:50:02 10° SSW
ARIANE 5 R/B 3.4 04:42:10 10° N 04:46:43 33° WNW 04:50:59 11° SW
IRS-1D 4.3 04:41:53 10° N 04:46:49 39° WNW 04:51:33 11° SW
Okean-O 4.4 04:45:48 10° NNE 04:49:48 32° E 04:53:44 10° SSE
Cosmos 389 Rocket 3.3 04:46:22 10° N 04:50:02 58° ENE 04:53:40 10° SSE
Cosmos 2219 3.3 04:46:09 10° SSW 04:51:52 87° ESE 04:57:40 10° NNE
GPS 2-05 Rocket1 3.8 04:49:30 13° SW 04:51:59 29° S 04:55:02 10° ESE
Cosmos 2322 3.8 04:46:47 10° NNW 04:52:24 59° WSW 04:58:00 10° S
CZ-2C R/B 3.7 04:49:05 10° S 04:53:31 66° WSW 04:58:03 10° NNW
SL-24 DEB 4.3 04:51:51 10° N 04:56:29 67° W 05:01:04 10° SSW
BREEZE-M DEB (TANK) 3.8 04:50:49 10° WNW 04:57:27 55° N 05:00:23 10° E
Cosmos 1869 Rocket 4.5 04:54:31 10° SW 04:58:24 32° WNW 05:02:22 10° NNW
Cosmos 1898 Rocket 3.5 04:57:01 10° SSW 05:02:12 72° WNW 05:07:23 10° NNE
Meteor 2-10 Rocket 3.8 05:00:54 10° N 05:05:57 73° E 05:11:06 10° SSE
OAO 3 Rocket 3.9 05:02:25 10° WSW 05:06:40 35° S 05:10:57 10° ESE
CZ-4B DEB 4.3 05:01:14 10° NNE 05:06:45 88° ESE 05:12:16 10° SSW
Cosmos 2333 Rocket 4.0 05:05:58 10° N 05:11:17 38° ENE 05:16:35 10° SE
Cosmos 1937 Rocket 3.6 05:06:30 10° SSW 05:11:50 83° WNW 05:17:10 10° NNE
PAYLOAD B 4.3 05:06:55 10° N 05:12:25 72° WNW 05:17:54 10° SSW
Cosmos 2150 Rocket 4.3 05:09:11 10° SW 05:14:21 54° WNW 05:19:38 10° N
Cosmos 2297 Rocket 4.4 05:10:41 10° SSE 05:15:02 23° ESE 05:19:24 10° NE
Cosmos 2341 Rocket 4.1 05:09:24 10° S 05:15:42 87° W 05:22:06 10° N
